Weather History for Roseau, MN

Change the Weather History Date:

Tuesday, October 8, 2013

  Actual Average Record
Temperature  
Mean Temperature 58 °F -  
Max Temperature 71 °F 56 °F 80 °F (2003)
Min Temperature 44 °F 34 °F 15 °F (1989)
Degree Days  
Heating Degree Days 8    
Growing Degree Days 8 (Base 50)    
Moisture  
Dew Point 46 °F    
Average Humidity 67    
Maximum Humidity 87    
Minimum Humidity 46    
Precipitation  
Precipitation 0.00 in - - ()
Sea Level Pressure  
Sea Level Pressure 29.67 in    
Wind  
Wind Speed 9 mph (South)    
Max Wind Speed 17 mph    
Max Gust Speed 21 mph    
Visibility 10 miles    
Events      
Averages and records for this station are not official NWS values.
T = Trace of Precipitation, MM = Missing Value Source: NWS Daily Summary

Daily Weather History Graph

Daily Weather History Graph

Search for Another Location

Airport:

Trip Planner

Search our weather history database for the weather conditions in past years. The results will help you decide how hot, cold, wet, or windy it might be!

Date:

Astronomy

Oct. 08, 2013 Rise Set
Actual Time 7:33 AM CDT 6:46 PM CDT
Civil Twilight 7:01 AM CDT 7:18 PM CDT
Nautical Twilight 6:24 AM CDT 7:54 PM CDT
Astronomical Twilight 5:48 AM CDT 8:31 PM CDT
Moon 11:47 AM CDT (10/8) 9:04 PM CDT (10/8)
Length of Visible Light 12h 16m
Length of Day
11h 13m
Waxing Crescent, 16% of the Moon is Illuminated
Oct 8
Waxing Crescent
Oct 11
First Quarter
Oct 18
Full
Oct 26
Last Quarter
Nov 3
New

Hourly Weather History & Observations

Time (CDT) Temp. Windchill Dew Point Humidity Pressure Visibility Wind Dir Wind Speed Gust Speed Precip Events Conditions
12:15 AM 46.4 °F 42.9 °F 39.2 °F 76% 29.79 in 10.0 mi SSE 6.9 mph - N/A   Clear
12:34 AM 46.4 °F 41.9 °F 39.2 °F 76% 29.79 in 10.0 mi SSE 9.2 mph - N/A   Clear
12:54 AM 48.2 °F - 39.2 °F 71% 29.78 in 10.0 mi SSE 8.1 mph - N/A   Clear
1:14 AM 48.2 °F - 39.2 °F 71% 29.78 in 10.0 mi SSE 8.1 mph - N/A   Clear
1:34 AM 48.2 °F - 39.2 °F 71% 29.77 in 10.0 mi SSE 8.1 mph - N/A   Clear
1:54 AM 48.2 °F - 39.2 °F 71% 29.76 in 10.0 mi SSE 9.2 mph - N/A   Clear
2:15 AM 48.2 °F - 39.2 °F 71% 29.76 in 10.0 mi South 11.5 mph - N/A   Clear
2:34 AM 48.2 °F - 39.2 °F 71% 29.75 in 10.0 mi South 10.4 mph - N/A   Clear
2:55 AM 48.2 °F - 39.2 °F 71% 29.74 in 10.0 mi South 10.4 mph - N/A   Clear
3:14 AM 48.2 °F - 39.2 °F 71% 29.74 in 10.0 mi South 10.4 mph - N/A   Clear
3:34 AM 48.2 °F - 39.2 °F 71% 29.73 in 10.0 mi South 10.4 mph - N/A   Clear
3:55 AM 48.2 °F - 39.2 °F 71% 29.72 in 10.0 mi South 11.5 mph - N/A   Clear
4:14 AM 48.2 °F - 39.2 °F 71% 29.72 in 10.0 mi South 11.5 mph - N/A   Clear
4:34 AM 48.2 °F - 39.2 °F 71% 29.71 in 10.0 mi South 11.5 mph - N/A   Clear
4:54 AM 50.0 °F - 41.0 °F 71% 29.70 in 10.0 mi South 11.5 mph - N/A   Clear
5:14 AM 51.8 °F - 42.8 °F 71% 29.69 in 10.0 mi SSE 11.5 mph - N/A   Clear
5:35 AM 51.8 °F - 42.8 °F 71% 29.68 in 10.0 mi SSE 12.7 mph - N/A   Clear
5:54 AM 51.8 °F - 42.8 °F 71% 29.67 in 10.0 mi South 12.7 mph - N/A   Clear
6:14 AM 51.8 °F - 42.8 °F 71% 29.67 in 10.0 mi SSE 10.4 mph - N/A   Clear
6:35 AM 51.8 °F - 42.8 °F 71% 29.67 in 10.0 mi SSE 6.9 mph - N/A   Clear
6:54 AM 48.2 °F - 41.0 °F 76% 29.66 in 10.0 mi SE 6.9 mph - N/A   Clear
7:14 AM 48.2 °F - 42.8 °F 82% 29.65 in 10.0 mi SSE 9.2 mph - N/A   Clear
7:35 AM 51.8 °F - 42.8 °F 71% 29.65 in 10.0 mi SSE 6.9 mph - N/A   Clear
7:54 AM 51.8 °F - 42.8 °F 71% 29.65 in 10.0 mi SSE 6.9 mph - N/A   Clear
8:14 AM 53.6 °F - 44.6 °F 72% 29.64 in 10.0 mi SSE 9.2 mph - N/A   Clear
8:35 AM 53.6 °F - 44.6 °F 72% 29.63 in 10.0 mi SSE 11.5 mph - N/A   Clear
8:54 AM 53.6 °F - 44.6 °F 72% 29.62 in 10.0 mi SSE 12.7 mph - N/A   Clear
9:14 AM 55.4 °F - 44.6 °F 67% 29.63 in 10.0 mi South 12.7 mph - N/A   Clear
9:33 AM 55.4 °F - 46.4 °F 72% 29.62 in 10.0 mi SSE 11.5 mph - N/A   Clear
9:54 AM 57.2 °F - 46.4 °F 67% 29.61 in 10.0 mi SSE 11.5 mph - N/A   Clear
10:14 AM 59.0 °F - 46.4 °F 63% 29.61 in 10.0 mi SSE 12.7 mph 17.3 mph N/A   Clear
10:34 AM 59.0 °F - 46.4 °F 63% 29.61 in 10.0 mi South 12.7 mph - N/A   Clear
10:54 AM 60.8 °F - 46.4 °F 59% 29.61 in 10.0 mi South 17.3 mph 20.7 mph N/A   Clear
11:14 AM 60.8 °F - 46.4 °F 59% 29.61 in 10.0 mi South 15.0 mph - N/A   Clear
11:34 AM 60.8 °F - 46.4 °F 59% 29.61 in 10.0 mi South 10.4 mph - N/A   Clear
11:54 AM 60.8 °F - 48.2 °F 63% 29.60 in 10.0 mi South 11.5 mph - N/A   Clear
12:14 PM 62.6 °F - 48.2 °F 59% 29.60 in 10.0 mi South 13.8 mph - N/A   Clear
12:34 PM 62.6 °F - 48.2 °F 59% 29.60 in 10.0 mi South 12.7 mph - N/A   Clear
12:54 PM 62.6 °F - 48.2 °F 59% 29.59 in 10.0 mi SSW 11.5 mph 18.4 mph N/A   Clear
1:15 PM 64.4 °F - 48.2 °F 56% 29.59 in 10.0 mi South 12.7 mph - N/A   Clear
1:34 PM 64.4 °F - 48.2 °F 56% 29.59 in 10.0 mi SSW 11.5 mph - N/A   Clear
1:54 PM 66.2 °F - 50.0 °F 56% 29.59 in 10.0 mi South 9.2 mph - N/A   Clear
2:15 PM 68.0 °F - 50.0 °F 52% 29.59 in 10.0 mi SSW 5.8 mph - N/A   Clear
2:34 PM 69.8 °F - 50.0 °F 49% 29.58 in 10.0 mi South 13.8 mph 18.4 mph N/A   Clear
2:54 PM 69.8 °F - 50.0 °F 49% 29.59 in 10.0 mi SSW 11.5 mph - N/A   Clear
3:15 PM 69.8 °F - 50.0 °F 49% 29.59 in 10.0 mi SSW 11.5 mph 17.3 mph N/A   Clear
3:34 PM 71.6 °F - 50.0 °F 46% 29.60 in 10.0 mi SSW 9.2 mph - N/A   Clear
3:54 PM 71.6 °F - 50.0 °F 46% 29.60 in 10.0 mi SW 11.5 mph - N/A   Clear
4:14 PM 71.6 °F - 50.0 °F 46% 29.61 in 10.0 mi SW 11.5 mph - N/A   Clear
4:34 PM 71.6 °F - 50.0 °F 46% 29.61 in 10.0 mi SW 11.5 mph 16.1 mph N/A   Clear
4:55 PM 69.8 °F - 50.0 °F 49% 29.62 in 10.0 mi SW 9.2 mph - N/A   Clear
5:14 PM 69.8 °F - 51.8 °F 53% 29.62 in 10.0 mi WSW 9.2 mph - N/A   Clear
5:34 PM 69.8 °F - 51.8 °F 53% 29.63 in 10.0 mi SW 9.2 mph - N/A   Clear
5:55 PM 68.0 °F - 51.8 °F 56% 29.64 in 10.0 mi SW 6.9 mph - N/A   Clear
6:14 PM 66.2 °F - 51.8 °F 60% 29.65 in 10.0 mi WSW 5.8 mph - N/A   Clear
6:34 PM 64.4 °F - 51.8 °F 64% 29.65 in 10.0 mi WSW 4.6 mph - N/A   Clear
6:55 PM 62.6 °F - 51.8 °F 68% 29.66 in 10.0 mi SW 3.5 mph - N/A   Clear
7:14 PM 62.6 °F - 51.8 °F 68% 29.66 in 10.0 mi SW 3.5 mph - N/A   Clear
7:34 PM 60.8 °F - 51.8 °F 72% 29.67 in 10.0 mi SW 4.6 mph - N/A   Clear
7:55 PM 60.8 °F - 51.8 °F 72% 29.68 in 10.0 mi SW 4.6 mph - N/A   Clear
8:14 PM 60.8 °F - 50.0 °F 68% 29.68 in 10.0 mi SW 3.5 mph - N/A   Clear
8:34 PM 55.4 °F - 48.2 °F 77% 29.68 in 10.0 mi SW 3.5 mph - N/A   Clear
8:55 PM 55.4 °F - 48.2 °F 77% 29.68 in 10.0 mi West 3.5 mph - N/A   Clear
9:14 PM 53.6 °F - 46.4 °F 77% 29.69 in 10.0 mi SW 3.5 mph - N/A   Clear
9:34 PM 55.4 °F - 48.2 °F 77% 29.70 in 10.0 mi West 4.6 mph - N/A   Clear
9:55 PM 50.0 °F - 44.6 °F 82% 29.71 in 10.0 mi South 5.8 mph - N/A   Clear
10:14 PM 51.8 °F - 46.4 °F 82% 29.71 in 10.0 mi WSW 4.6 mph - N/A   Clear
10:34 PM 51.8 °F - 46.4 °F 82% 29.71 in 10.0 mi SW 3.5 mph - N/A   Clear
10:55 PM 46.4 °F 43.5 °F 41.0 °F 81% 29.73 in 10.0 mi SSW 5.8 mph - N/A   Clear
11:14 PM 48.2 °F - 42.8 °F 82% 29.73 in 10.0 mi South 3.5 mph - N/A   Clear
11:34 PM 44.6 °F 43.1 °F 41.0 °F 87% 29.74 in 10.0 mi SW 3.5 mph - N/A   Clear
11:54 PM 51.8 °F - 46.4 °F 82% 29.75 in 10.0 mi WSW 6.9 mph - N/A   Clear